Weather History for KBLH - August, 2013

Change the Weather History Date:

Thursday, August 22, 2013

  Actual Average Record
Temperature  
Mean Temperature 94 °F -  
Max Temperature 105 °F 105 °F 115 °F (1972)
Min Temperature 84 °F 80 °F 68 °F (1989)
Cooling Degree Days 30    
Growing Degree Days 44 (Base 50)    
Moisture  
Dew Point 65 °F    
Average Humidity 39    
Maximum Humidity 61    
Minimum Humidity 23    
Precipitation  
Precipitation 0.02 in - - ()
Sea Level Pressure  
Sea Level Pressure 29.77 in    
Wind  
Wind Speed 9 mph (South)    
Max Wind Speed 30 mph    
Max Gust Speed 36 mph    
Visibility 10 miles    
Events Rain , Thunderstorm    
Averages and records for this station are not official NWS values.
T = Trace of Precipitation, MM = Missing Value Source: NWS Daily Summary

Daily Weather History Graph

Daily Weather History Graph

Search for Another Location

Airport or City:

Trip Planner

Search our weather history database for the weather conditions in past years. The results will help you decide how hot, cold, wet, or windy it might be!

Date:

Astronomy

Aug. 22, 2013 Rise Set
Actual Time 6:06 AM PDT 7:16 PM PDT
Civil Twilight 5:40 AM PDT 7:42 PM PDT
Nautical Twilight 5:09 AM PDT 8:13 PM PDT
Astronomical Twilight 4:37 AM PDT 8:44 PM PDT
Moon 8:13 PM PDT (8/22) 7:51 AM PDT (8/22)
Length of Visible Light 14h 02m
Length of Day
13h 10m
Waning Gibbous, 96% of the Moon is Illuminated
Aug 22
Waning Gibbous
Aug 28
Last Quarter
Sep 5
New
Sep 12
First Quarter
Sep 19
Full

Hourly Weather History & Observations

Time (PDT) Temp. Heat Index Dew Point Humidity Pressure Visibility Wind Dir Wind Speed Gust Speed Precip Events Conditions
12:52 AM 91.9 °F 92.5 °F 62.1 °F 37% 29.78 in 10.0 mi Calm Calm - N/A   Clear
1:52 AM 93.0 °F 92.0 °F 57.9 °F 31% 29.77 in 10.0 mi SE 3.5 mph - N/A   Clear
2:52 AM 91.9 °F 91.5 °F 60.1 °F 34% 29.77 in 10.0 mi South 5.8 mph - N/A   Clear
3:52 AM 91.0 °F 91.9 °F 63.0 °F 39% 29.77 in 10.0 mi South 9.2 mph - N/A   Clear
4:52 AM 91.0 °F 91.9 °F 63.0 °F 39% 29.77 in 10.0 mi SSW 8.1 mph - N/A   Clear
5:52 AM 90.0 °F 90.6 °F 63.0 °F 40% 29.78 in 10.0 mi West 3.5 mph - N/A   Clear
6:52 AM 90.0 °F 91.3 °F 64.0 °F 42% 29.81 in 10.0 mi SW 4.6 mph - N/A   Clear
7:52 AM 93.0 °F 94.6 °F 64.0 °F 38% 29.82 in 10.0 mi SSW 3.5 mph - N/A   Clear
8:52 AM 95.0 °F 96.0 °F 63.0 °F 34% 29.82 in 10.0 mi South 6.9 mph - N/A   Clear
9:52 AM 96.1 °F 99.3 °F 66.0 °F 37% 29.83 in 10.0 mi SSE 13.8 mph - N/A   Clear
10:52 AM 99.0 °F 102.9 °F 66.0 °F 34% 29.83 in 10.0 mi South 11.5 mph - N/A   Clear
11:52 AM 99.0 °F 102.9 °F 66.0 °F 34% 29.82 in 10.0 mi South 13.8 mph - N/A   Clear
12:52 PM 99.0 °F 102.9 °F 66.0 °F 34% 29.80 in 10.0 mi South 13.8 mph - N/A   Clear
1:52 PM 100.9 °F 105.3 °F 66.0 °F 32% 29.78 in 10.0 mi South 12.7 mph - N/A   Clear
2:52 PM 100.9 °F 105.3 °F 66.0 °F 32% 29.75 in 10.0 mi South 10.4 mph - N/A   Clear
3:52 PM 102.9 °F 103.6 °F 60.1 °F 24% 29.70 in 10.0 mi SSE 9.2 mph - N/A   Clear
4:52 PM 102.0 °F 104.6 °F 63.0 °F 28% 29.69 in 10.0 mi SE 8.1 mph - N/A   Clear
5:52 PM 105.1 °F 106.4 °F 60.1 °F 23% 29.68 in 10.0 mi SSE 8.1 mph - N/A   Clear
6:43 PM 91.4 °F 95.4 °F 68.0 °F 46% 29.75 in 6.0 mi South 29.9 mph 35.7 mph N/A Thunderstorm Haze
6:52 PM 90.0 °F 92.8 °F 66.9 °F 46% 29.74 in 8.0 mi South 24.2 mph 35.7 mph N/A Thunderstorm Clear
6:59 PM 91.4 °F 94.0 °F 66.2 °F 43% 29.75 in 10.0 mi South 20.7 mph 32.2 mph N/A   Clear
7:06 PM 91.4 °F 94.0 °F 66.2 °F 43% 29.76 in 10.0 mi South 26.5 mph 32.2 mph N/A Thunderstorm Thunderstorm
7:52 PM 87.1 °F 92.8 °F 71.1 °F 59% 29.81 in 10.0 mi NNW 12.7 mph - 0.01 in Rain , Thunderstorm Light Rain
8:52 PM 90.0 °F 90.3 °F 62.1 °F 39% 29.78 in 10.0 mi NW 19.6 mph - 0.01 in Rain , Thunderstorm Light Thunderstorms and Rain
9:00 PM 89.6 °F 91.1 °F 64.4 °F 43% 29.79 in 10.0 mi NNW 16.1 mph - 0.00 in Rain Light Rain
9:52 PM 86.0 °F 88.2 °F 66.0 °F 51% 29.74 in 10.0 mi SSW 12.7 mph - 0.00 in   Clear
10:52 PM 84.0 °F 87.8 °F 69.1 °F 61% 29.74 in 10.0 mi SW 10.4 mph - N/A   Clear
11:52 PM 84.9 °F 88.8 °F 69.1 °F 59% 29.78 in 10.0 mi SSE 3.5 mph - N/A   Clear